When you browse on this site, cookies collect data to enhance your experience and personalize the content and advertising you see.
Visit our Privacy Policy to learn more. By continuing to use the site, you agree to this use of cookies and data.
  • In Lithuania
  • List of Countries
  • For 7 days
  • Water Temperature
  • Weather Map
  • Weather Widgets
  • user-avatar
    Login

    Hourly Weather Edmundston

    Today, 26 May, Tuesday

    Time Temperature Precipitation Wind Pressure Humidity
    00:00 +11°C° 0.3 mm 3 mps 696 mmHg 88%
    01:00 +12°C° 0.3 mm 2 mps 696 mmHg 90%
    02:00 +10°C° 0 mm 3 mps 696 mmHg 89%
    03:00 +10°C° 0 mm 3 mps 696 mmHg 88%
    04:00 +10°C° 0 mm 4 mps 697 mmHg 87%
    05:00 +9°C° 0 mm 5 mps 697 mmHg 82%
    06:00 +10°C° 0 mm 5 mps 697 mmHg 76%
    07:00 +10°C° 0 mm 6 mps 698 mmHg 70%
    08:00 +11°C° 0 mm 6 mps 698 mmHg 66%
    09:00 +11°C° 0 mm 6 mps 698 mmHg 62%
    10:00 +13°C° 0 mm 6 mps 698 mmHg 58%
    11:00 +14°C° 0 mm 5 mps 698 mmHg 55%
    12:00 +14°C° 0 mm 5 mps 698 mmHg 51%
    13:00 +15°C° 0 mm 5 mps 698 mmHg 48%
    14:00 +15°C° 0 mm 5 mps 698 mmHg 49%
    15:00 +15°C° 0 mm 5 mps 698 mmHg 50%
    16:00 +15°C° 0 mm 5 mps 698 mmHg 51%
    17:00 +14°C° 0 mm 5 mps 698 mmHg 55%
    18:00 +12°C° 0 mm 5 mps 698 mmHg 58%
    19:00 +10°C° 0 mm 5 mps 698 mmHg 62%
    20:00 +9°C° 0 mm 5 mps 698 mmHg 62%
    21:00 +8°C° 0 mm 5 mps 699 mmHg 62%
    22:00 +7°C° 0 mm 5 mps 699 mmHg 61%
    23:00 +6°C° 0 mm 5 mps 699 mmHg 66%

    Tomorrow, 27 May, Wednesday

    Time Temperature Precipitation Wind Pressure Humidity
    00:00 +6°C° 0 mm 5 mps 700 mmHg 70%
    01:00 +5°C° 0 mm 4 mps 700 mmHg 75%
    02:00 +5°C° 0 mm 5 mps 700 mmHg 76%
    03:00 +5°C° 0 mm 5 mps 700 mmHg 77%
    04:00 +5°C° 0 mm 5 mps 700 mmHg 77%
    05:00 +5°C° 0 mm 6 mps 700 mmHg 75%
    06:00 +6°C° 0 mm 7 mps 701 mmHg 72%
    07:00 +9°C° 0 mm 8 mps 701 mmHg 69%
    08:00 +10°C° 0.2 mm 8 mps 701 mmHg 66%
    09:00 +11°C° 0.2 mm 8 mps 701 mmHg 63%
    10:00 +12°C° 0.2 mm 7 mps 702 mmHg 59%
    11:00 +14°C° 0.4 mm 7 mps 702 mmHg 57%
    12:00 +15°C° 0.4 mm 7 mps 702 mmHg 55%
    13:00 +15°C° 0.4 mm 7 mps 703 mmHg 53%
    14:00 +15°C° 0.2 mm 6 mps 703 mmHg 54%
    15:00 +15°C° 0.2 mm 6 mps 703 mmHg 54%
    16:00 +15°C° 0.2 mm 5 mps 703 mmHg 54%
    17:00 +14°C° 0.1 mm 4 mps 703 mmHg 58%
    18:00 +13°C° 0.1 mm 3 mps 704 mmHg 63%
    19:00 +13°C° 0.1 mm 2 mps 704 mmHg 67%
    20:00 +12°C° 0 mm 2 mps 704 mmHg 69%
    21:00 +9°C° 0 mm 2 mps 705 mmHg 72%
    22:00 +8°C° 0 mm 2 mps 705 mmHg 74%
    23:00 +8°C° 0 mm 2 mps 705 mmHg 76%

    Day after tomorrow, 28 May, Thursday

    Time Temperature Precipitation Wind Pressure Humidity
    00:00 +7°C° 0 mm 2 mps 706 mmHg 78%
    01:00 +7°C° 0 mm 2 mps 706 mmHg 81%
    02:00 +6°C° 0 mm 2 mps 706 mmHg 82%
    03:00 +6°C° 0 mm 2 mps 706 mmHg 83%
    04:00 +6°C° 0 mm 2 mps 706 mmHg 84%
    05:00 +8°C° 0 mm 2 mps 706 mmHg 78%
    06:00 +11°C° 0 mm 1 mps 707 mmHg 72%
    07:00 +13°C° 0 mm 1 mps 707 mmHg 67%
    08:00 +14°C° 0 mm 1 mps 707 mmHg 61%
    09:00 +15°C° 0 mm 2 mps 707 mmHg 56%
    10:00 +17°C° 0 mm 2 mps 707 mmHg 51%
    11:00 +18°C° 0 mm 1 mps 707 mmHg 48%
    12:00 +19°C° 0 mm 1 mps 707 mmHg 45%
    13:00 +20°C° 0 mm 1 mps 707 mmHg 43%
    14:00 +20°C° 0 mm 1 mps 706 mmHg 44%
    15:00 +19°C° 0 mm 2 mps 706 mmHg 45%
    16:00 +19°C° 0 mm 2 mps 706 mmHg 46%
    17:00 +17°C° 0 mm 2 mps 706 mmHg 52%
    18:00 +16°C° 0 mm 2 mps 706 mmHg 58%
    19:00 +15°C° 0 mm 2 mps 705 mmHg 64%
    20:00 +13°C° 0 mm 3 mps 705 mmHg 64%
    21:00 +12°C° 0 mm 3 mps 705 mmHg 64%
    22:00 +11°C° 0 mm 3 mps 705 mmHg 64%
    23:00 +11°C° 0 mm 3 mps 705 mmHg 66%

    29 May, Friday

    Time Temperature Precipitation Wind Pressure Humidity
    00:00 +11°C° 0 mm 3 mps 705 mmHg 68%
    01:00 +12°C° 0 mm 2 mps 705 mmHg 69%
    02:00 +11°C° 0 mm 3 mps 705 mmHg 73%
    03:00 +10°C° 0 mm 3 mps 705 mmHg 76%
    04:00 +10°C° 0 mm 3 mps 705 mmHg 80%
    05:00 +11°C° 0 mm 3 mps 705 mmHg 79%
    06:00 +12°C° 0 mm 4 mps 706 mmHg 78%
    07:00 +13°C° 0 mm 4 mps 706 mmHg 77%
    08:00 +14°C° 0 mm 4 mps 706 mmHg 73%
    09:00 +15°C° 0 mm 4 mps 706 mmHg 69%
    10:00 +17°C° 0 mm 4 mps 706 mmHg 65%
    11:00 +17°C° 0.2 mm 4 mps 706 mmHg 65%
    12:00 +16°C° 0.2 mm 5 mps 706 mmHg 65%
    13:00 +16°C° 0.2 mm 5 mps 706 mmHg 65%
    14:00 +17°C° 0 mm 5 mps 706 mmHg 64%
    15:00 +18°C° 0 mm 4 mps 706 mmHg 63%
    16:00 +18°C° 0 mm 4 mps 705 mmHg 62%
    17:00 +17°C° 0 mm 4 mps 705 mmHg 67%
    18:00 +16°C° 0 mm 3 mps 705 mmHg 72%
    19:00 +14°C° 0 mm 3 mps 705 mmHg 77%
    20:00 +13°C° 0 mm 3 mps 705 mmHg 80%
    21:00 +11°C° 0 mm 3 mps 705 mmHg 82%
    22:00 +10°C° 0 mm 3 mps 705 mmHg 85%
    23:00 +10°C° 0 mm 3 mps 705 mmHg 87%

    30 May, Saturday

    Time Temperature Precipitation Wind Pressure Humidity
    00:00 +9°C° 0 mm 3 mps 705 mmHg 89%
    01:00 +9°C° 0 mm 3 mps 705 mmHg 90%
    02:00 +9°C° 0 mm 3 mps 705 mmHg 91%
    03:00 +9°C° 0 mm 3 mps 705 mmHg 91%
    04:00 +8°C° 0 mm 3 mps 705 mmHg 92%
    05:00 +10°C° 0 mm 4 mps 705 mmHg 86%
    06:00 +12°C° 0 mm 5 mps 705 mmHg 80%
    07:00 +13°C° 0 mm 6 mps 705 mmHg 75%
    08:00 +15°C° 0 mm 6 mps 704 mmHg 71%
    09:00 +16°C° 0 mm 6 mps 704 mmHg 68%
    10:00 +17°C° 0 mm 7 mps 703 mmHg 65%
    11:00 +20°C° 0 mm 7 mps 703 mmHg 62%
    12:00 +21°C° 0 mm 7 mps 703 mmHg 60%
    13:00 +22°C° 0 mm 8 mps 702 mmHg 57%
    14:00 +22°C° 0 mm 8 mps 701 mmHg 58%
    15:00 +22°C° 0 mm 8 mps 701 mmHg 59%
    16:00 +22°C° 0 mm 7 mps 700 mmHg 60%
    17:00 +21°C° 0 mm 7 mps 700 mmHg 64%
    18:00 +20°C° 0 mm 7 mps 699 mmHg 67%
    19:00 +19°C° 0 mm 6 mps 698 mmHg 70%
    20:00 +18°C° 0 mm 7 mps 698 mmHg 68%
    21:00 +18°C° 0 mm 7 mps 697 mmHg 66%
    22:00 +17°C° 0 mm 8 mps 697 mmHg 64%
    23:00 +17°C° 0 mm 8 mps 696 mmHg 64%

    31 May, Sunday

    Time Temperature Precipitation Wind Pressure Humidity
    00:00 +17°C° 0 mm 9 mps 696 mmHg 64%
    01:00 +16°C° 0 mm 9 mps 695 mmHg 64%
    02:00 +16°C° 0 mm 9 mps 694 mmHg 67%
    03:00 +15°C° 0 mm 8 mps 693 mmHg 69%
    04:00 +15°C° 0 mm 8 mps 692 mmHg 71%
    05:00 +16°C° 0 mm 8 mps 692 mmHg 72%
    06:00 +16°C° 0 mm 8 mps 692 mmHg 72%
    07:00 +17°C° 0 mm 8 mps 692 mmHg 72%
    08:00 +17°C° 0.2 mm 8 mps 691 mmHg 71%
    09:00 +18°C° 0.2 mm 7 mps 691 mmHg 71%
    10:00 +20°C° 0.2 mm 7 mps 691 mmHg 71%
    11:00 +21°C° 0.3 mm 6 mps 690 mmHg 68%
    12:00 +22°C° 0.3 mm 5 mps 690 mmHg 65%
    13:00 +25°C° 0.3 mm 4 mps 690 mmHg 62%
    14:00 +25°C° 0 mm 4 mps 690 mmHg 58%
    15:00 +25°C° 0 mm 3 mps 690 mmHg 54%
    16:00 +25°C° 0 mm 2 mps 690 mmHg 51%
    17:00 +24°C° 0 mm 3 mps 690 mmHg 56%
    18:00 +22°C° 0 mm 3 mps 690 mmHg 62%
    19:00 +20°C° 0 mm 3 mps 691 mmHg 68%
    20:00 +18°C° 0.4 mm 3 mps 691 mmHg 72%
    21:00 +17°C° 0.4 mm 4 mps 692 mmHg 76%
    22:00 +14°C° 0.4 mm 5 mps 692 mmHg 80%
    23:00 +13°C° 0.2 mm 4 mps 693 mmHg 78%
    Show more